Regional Weather Roundup
Issued by NWS Newport/Morehead, NC

Current Version | Previous Version | Graphics & Text | Print | Product List | Glossary Off
Versions: 1 2 3 4 5 6 7 8 9 10 11 12 13 14 15 16 17 18 19 20 21 22 23 24 25 26 27 28 29 30 31 32 33 34 35 36 37 38 39 40 41 42 43 44 45 46 47 48 49 50

000
ASUS42 KMHX 242310
RWRMHX
WEATHER ROUNDUP FOR EASTERN NORTH CAROLINA
NATIONAL WEATHER SERVICE NEWPORT/MOREHEAD CITY NC
700 PM EDT THU JUL 24 2014

NOTE: "FAIR" INDICATES FEW OR NO CLOUDS BELOW 12,000 FEET
WITH NO SIGNIFICANT WEATHER AND/OR OBSTRUCTIONS TO VISIBILITY

NCZ015>017-031-032-045>047-102-103-250000-
NORTH COAST

CITY           SKY/WX    TMP DP  RH WIND       PRES   REMARKS
EDENTON        PTSUNNY   77  72  83 S5        29.86S
ELIZABETH CITY MOSUNNY   78  71  79 S6        29.86R
KITTY HAWK     MOCLDY    76  70  80 CALM      29.86R
MANTEO         NOT AVBL

$$

NCZ045>047-081-094-103-104-250000-
CENTRAL COAST

CITY           SKY/WX    TMP DP  RH WIND       PRES   REMARKS
FRISCO         CLOUDY    75  71  87 W9        29.87S
SWANQUARTER      N/A     75 N/A N/A S9        29.85R

$$

NCZ095-097-098-100-101-250000-
SOUTHERN COAST

CITY           SKY/WX    TMP DP  RH WIND       PRES   REMARKS
BEAUFORT       RAIN      75  73  93 S15       29.89R FOG
CEDAR ISLAND     N/A     73 N/A N/A S6G14     29.91R
JACKSONVILLE   TSTM      75  73  93 SE8       29.89R FOG
NEWPORT        NOT AVBL
PINEY ISLAND   CLOUDY    74  74 100 SW8       29.88R
WILMINGTON     MOSUNNY   76  73  91 S3        29.87F


$$

NCZ011>013-027>030-043-044-078>080-089-090>093-098-250000-
COASTAL PLAIN

CITY           SKY/WX    TMP DP  RH WIND       PRES   REMARKS
AHOSKIE        MOSUNNY   78  71  80 SE6       29.86R
CLINTON        PTSUNNY   81  74  80 CALM      29.86R
ELIZABETHTOWN  MOSUNNY   80  72  76 S6        29.85R
GOLDSBORO      LGT RAIN  73  73 100 CALM      29.86S FOG
GREENVILLE     CLOUDY    77  73  88 SE3       29.88F
HAVELOCK       NOT AVBL
KENANSVILLE    LGT RAIN  75  73  92 CALM      29.88R
KINSTON        CLOUDY    77  75  94 S3        29.87R
NEW BERN       LGT RAIN  75  72  88 S6        29.89R
RICHLANDS      CLOUDY    75  72  88 S7        29.88R
ROANOKE RAPIDS NOT AVBL
ROCKY MOUNT    CLOUDY    78  72  81 S6        29.87R
WASHINGTON     CLOUDY    75  73  94 CALM      29.85F
WHITEVILLE     MOSUNNY   80  74  80 CALM      29.85R

$$

AMZ130-135-150-152-154-156-158-170-250-252-270-ANZ085-086-088-633-658-670-250000-
MARINE OBSERVATIONS

STATION/POSITION TIME  TEMP    WIND        PRES    WAVE   SWELL
                       AIR SEA DIR/SP/G            HT/PER HT/PER
                 (UTC) (F)     (DEG/KT/KT) (MB)    (FT/S) (FT/S)
CHESAPEAKE LIGHT NOT AVBL
BUOY 44014       2300   77 78   10/  4/  4 1010.8    3/ 7   3/ 7
DUCK             2300   77 74   80/  2/  2 1010.4
2E DUCK          2300                        N/A     2/11
OREGON INLET     2300   77 82  200/  3/  4 1011.1
BUOY 44095       2300      78                N/A     3/ 7
20E OREGON INLET 2200          VRB  4/  6    N/A
HATTERAS CG      2300   75 82  230/  8/ 14 1011.6
DIAMOND BUOY     2300          VRB 14/ 16  1011.0    4/ 7   2/ 7
CAPE LOOKOUT     2200   72     200/  7/ 10 1012.2
BEAUFORT LAB     2300   75 82  180/ 17/ 19 1011.6
30 SE NEW RIVER  2300   82 81  230/ 17/ 19 1011.7    5/ 6
5 SE WRIGHTSVILL 2200   81 82  230/ 19/ 21   N/A
BUOY 41002       2245   82 82  230/ 17/ 21 1015.1    5/ 7   2/ 9
BUOY 41004       2300   83 83  210/ 17/ 21 1011.5    4/ 5   2/ 7

$$



USA.gov is the U.S. government's official web portal to all federal, state and local government web resources and services.